Weather History for Abingdon, VA

Change the Weather History Date:

Monday, February 25, 2013

  Actual Average (KTRI) Record (KTRI)
Temperature  
Mean Temperature 42 °F 42 °F  
Max Temperature 53 °F 53 °F 74 °F (2000)
Min Temperature 30 °F 30 °F -1 °F (1967)
Degree Days  
Heating Degree Days 24 23  
Month to date heating degree days 659  
Since 1 July heating degree days 3313  
Cooling Degree Days 0 0  
Month to date cooling degree days 0  
Year to date cooling degree days 0  
Moisture  
Dew Point 27 °F    
Average Humidity 61    
Maximum Humidity 79    
Minimum Humidity 42    
Precipitation  
Precipitation 0.00 in 0.12 in 1.78 in (1961)
Month to date precipitation 3.10  
Year to date precipitation 6.47  
Snow  
Snow 0.00 in 0.10 in - ()
Month to date snowfall 3.1  
Since 1 July snowfall 10.5  
Snow Depth -    
Sea Level Pressure  
Sea Level Pressure 30.00 in    
Wind  
Wind Speed 7 mph (East)    
Max Wind Speed 18 mph    
Max Gust Speed 23 mph    
Visibility 10 miles    
Events      
T = Trace of Precipitation, MM = Missing Value Source: NWS Daily Summary

Daily Weather History Graph

Daily Weather History Graph

Search for Another Location

Airport:

Trip Planner

Search our weather history database for the weather conditions in past years. The results will help you decide how hot, cold, wet, or windy it might be!

Date:

Astronomy

Feb. 25, 2013 Rise Set
Actual Time 7:03 AM EST 6:18 PM EST
Civil Twilight 6:37 AM EST 6:45 PM EST
Nautical Twilight 6:07 AM EST 7:15 PM EST
Astronomical Twilight 5:37 AM EST 7:45 PM EST
Moon 6:29 PM EST (2/25) 6:34 AM EST (2/25)
Length of Visible Light 12h 07m
Length of Day
11h 15m
Full, 100% of the Moon is Illuminated
Feb 25
Full
Feb 25
Full
Mar 4
Last Quarter
Mar 11
New
Mar 19
First Quarter

Hourly Weather History & Observations

Time (EST) Temp. Windchill Dew Point Humidity Pressure Visibility Wind Dir Wind Speed Gust Speed Precip Events Conditions
12:15 AM 34.3 °F - 24.6 °F 68% 30.03 in 10.0 mi Calm Calm - N/A   Clear
12:35 AM 32.4 °F - 24.6 °F 73% 30.02 in 10.0 mi Calm Calm - N/A   Clear
12:55 AM 32.4 °F - 24.4 °F 73% 30.03 in 10.0 mi Calm Calm - N/A   Clear
1:15 AM 32.0 °F - 24.4 °F 74% 30.03 in 10.0 mi Calm Calm - N/A   Clear
1:35 AM 31.3 °F - 24.4 °F 76% 30.03 in 10.0 mi Calm Calm - N/A   Clear
2:15 AM 30.7 °F 27.3 °F 23.9 °F 76% 30.04 in 10.0 mi East 3.5 mph - N/A   Clear
2:35 AM 30.9 °F 27.5 °F 23.9 °F 75% 30.04 in 10.0 mi East 3.5 mph - N/A   Clear
2:55 AM 30.4 °F 25.6 °F 23.7 °F 76% 30.03 in 10.0 mi East 4.6 mph - N/A   Clear
3:15 AM 30.2 °F 23.4 °F 24.3 °F 79% 30.03 in 10.0 mi East 6.9 mph - N/A   Clear
3:35 AM 33.3 °F 27.9 °F 23.5 °F 68% 30.02 in 10.0 mi East 5.8 mph - N/A   Clear
3:55 AM 31.5 °F 28.1 °F 24.3 °F 75% 30.04 in 10.0 mi East 3.5 mph - N/A   Clear
4:15 AM 31.8 °F 26.2 °F 24.1 °F 73% 30.03 in 10.0 mi East 5.8 mph - N/A   Clear
4:35 AM 31.6 °F 25.1 °F 24.4 °F 75% 30.02 in 10.0 mi East 6.9 mph - N/A   Clear
4:55 AM 31.1 °F 24.5 °F 24.6 °F 77% 30.03 in 10.0 mi ESE 6.9 mph - N/A   Clear
5:15 AM 32.0 °F 27.5 °F 24.3 °F 73% 30.03 in 10.0 mi East 4.6 mph - N/A   Clear
5:35 AM 33.8 °F 28.6 °F 23.9 °F 67% 30.02 in 10.0 mi East 5.8 mph - N/A   Clear
5:55 AM 34.3 °F 30.2 °F 23.9 °F 66% 30.03 in 10.0 mi ESE 4.6 mph - N/A   Clear
6:15 AM 32.9 °F 28.5 °F 24.3 °F 71% 30.03 in 10.0 mi East 4.6 mph - N/A   Clear
6:35 AM 34.0 °F 28.0 °F 24.1 °F 67% 30.02 in 10.0 mi ENE 6.9 mph - N/A   Clear
6:55 AM 32.9 °F 27.5 °F 24.8 °F 72% 30.03 in 10.0 mi East 5.8 mph - N/A   Clear
7:15 AM 33.8 °F 27.7 °F 24.3 °F 68% 30.03 in 10.0 mi East 6.9 mph - N/A   Clear
7:35 AM 34.2 °F 27.5 °F 24.6 °F 68% 30.03 in 10.0 mi East 8.1 mph - N/A   Unknown
7:55 AM 33.8 °F 27.0 °F 25.2 °F 71% 30.04 in 10.0 mi East 8.1 mph - N/A   Clear
8:15 AM 34.7 °F 27.5 °F 24.6 °F 67% 30.05 in 10.0 mi East 9.2 mph - N/A   Clear
8:35 AM 35.4 °F 27.8 °F 25.0 °F 66% 30.06 in 10.0 mi East 10.4 mph - N/A   Clear
8:55 AM 36.0 °F 28.5 °F 25.7 °F 66% 30.06 in 10.0 mi East 10.4 mph - N/A   Clear
9:15 AM 36.5 °F 28.2 °F 26.1 °F 66% 30.05 in 10.0 mi East 12.7 mph - N/A   Clear
9:35 AM 37.0 °F 28.9 °F 25.7 °F 64% 30.06 in 10.0 mi East 12.7 mph - N/A   Clear
10:15 AM 39.0 °F 32.3 °F 27.0 °F 62% 30.05 in 10.0 mi East 10.4 mph - N/A   Clear
10:35 AM 39.6 °F 32.1 °F 26.8 °F 60% 30.05 in 10.0 mi East 12.7 mph - N/A   Clear
10:55 AM 40.8 °F 34.1 °F 27.5 °F 59% 30.05 in 10.0 mi East 11.5 mph - N/A   Clear
11:15 AM 41.5 °F 35.4 °F 27.5 °F 57% 30.05 in 10.0 mi East 10.4 mph - N/A   Clear
11:35 AM 42.8 °F 35.8 °F 27.7 °F 55% 30.05 in 10.0 mi East 13.8 mph - N/A   Clear
11:55 AM 43.3 °F 36.8 °F 27.7 °F 54% 30.05 in 10.0 mi East 12.7 mph - N/A   Clear
12:15 PM 44.1 °F 38.1 °F 27.9 °F 53% 30.04 in 10.0 mi East 11.5 mph - N/A   Clear
12:35 PM 44.4 °F 38.6 °F 28.0 °F 53% 30.03 in 10.0 mi East 11.5 mph - N/A   Clear
12:55 PM 45.1 °F 39.1 °F 28.2 °F 52% 30.02 in 10.0 mi ESE 12.7 mph - N/A   Clear
1:15 PM 45.7 °F 40.6 °F 28.9 °F 52% 30.02 in 10.0 mi East 10.4 mph - N/A   Clear
1:35 PM 46.4 °F 41.1 °F 28.8 °F 50% 30.01 in 10.0 mi ESE 11.5 mph - N/A   Clear
1:55 PM 46.9 °F - 29.3 °F 50% 29.99 in 10.0 mi East 11.5 mph - N/A   Clear
2:35 PM 48.2 °F - 29.3 °F 48% 30.00 in 10.0 mi East 9.2 mph - N/A   Clear
2:55 PM 51.3 °F - 30.9 °F 46% 29.99 in 10.0 mi ESE 8.1 mph - N/A   Clear
3:15 PM 51.8 °F - 30.2 °F 44% 29.98 in 10.0 mi ESE 8.1 mph - N/A   Clear
3:35 PM 52.3 °F - 30.4 °F 43% 29.99 in 10.0 mi ESE 5.8 mph - N/A   Clear
3:55 PM 52.9 °F - 30.7 °F 43% 29.98 in 10.0 mi East 5.8 mph - N/A   Clear
4:15 PM 53.2 °F - 30.4 °F 42% 29.97 in 10.0 mi East 3.5 mph - N/A   Clear
4:35 PM 53.6 °F - 30.7 °F 42% 29.96 in 10.0 mi East 3.5 mph - N/A   Clear
4:55 PM 53.4 °F - 30.7 °F 42% 29.96 in 10.0 mi East 6.9 mph - N/A   Clear
5:15 PM 53.6 °F - 31.5 °F 43% 29.96 in 10.0 mi East 8.1 mph - N/A   Clear
5:35 PM 52.7 °F - 31.6 °F 45% 29.96 in 10.0 mi East 9.2 mph - N/A   Clear
5:55 PM 51.3 °F - 32.0 °F 48% 29.96 in 10.0 mi East 10.4 mph - N/A   Clear
6:15 PM 50.0 °F - 31.3 °F 49% 29.95 in 10.0 mi East 10.4 mph - N/A   Clear
6:35 PM 47.1 °F - 31.1 °F 54% 29.95 in 10.0 mi East 9.2 mph - N/A   Clear
6:55 PM 46.4 °F 41.1 °F 30.9 °F 55% 29.95 in 10.0 mi East 11.5 mph - N/A   Clear
7:15 PM 46.4 °F 40.4 °F 30.7 °F 54% 29.95 in 10.0 mi East 13.8 mph - N/A   Clear
7:35 PM 45.5 °F 38.9 °F 30.2 °F 55% 29.94 in 10.0 mi East 15.0 mph - N/A   Clear
7:55 PM 44.2 °F 36.4 °F 30.0 °F 57% 29.94 in 10.0 mi East 18.4 mph 21.9 mph N/A   Clear
8:15 PM 43.0 °F 35.1 °F 29.7 °F 59% 29.95 in 10.0 mi East 17.3 mph 21.9 mph N/A   Clear
8:35 PM 42.3 °F 34.4 °F 29.1 °F 60% 29.94 in 10.0 mi East 16.1 mph 20.7 mph N/A   Clear
8:55 PM 41.5 °F 33.5 °F 28.8 °F 60% 29.94 in 10.0 mi East 16.1 mph 23.0 mph N/A   Clear
9:15 PM 41.0 °F 33.1 °F 28.8 °F 62% 29.95 in 10.0 mi East 15.0 mph 21.9 mph N/A   Clear
9:35 PM 40.5 °F 31.5 °F 28.4 °F 62% 29.94 in 10.0 mi East 18.4 mph 21.9 mph N/A   Clear
9:55 PM 40.5 °F 32.1 °F 28.6 °F 63% 29.95 in 10.0 mi East 16.1 mph 23.0 mph N/A   Scattered Clouds
10:15 PM 40.3 °F 31.9 °F 28.9 °F 64% 29.95 in 10.0 mi East 16.1 mph 19.6 mph N/A   Scattered Clouds
10:35 PM 40.1 °F 32.0 °F 29.1 °F 65% 29.95 in 10.0 mi East 15.0 mph - N/A   Scattered Clouds
10:55 PM 40.1 °F 32.0 °F 29.3 °F 65% 29.94 in 10.0 mi East 15.0 mph 23.0 mph N/A   Mostly Cloudy
11:15 PM 40.5 °F 32.8 °F 30.0 °F 66% 29.94 in 10.0 mi East 13.8 mph - N/A   Mostly Cloudy
11:35 PM 40.8 °F 34.5 °F 30.4 °F 66% 29.93 in 10.0 mi ENE 10.4 mph - N/A   Mostly Cloudy
11:55 PM 41.0 °F 33.5 °F 30.0 °F 65% 29.94 in 10.0 mi ENE 13.8 mph 19.6 mph N/A   Mostly Cloudy